This is the latest recevied weather packets stored in our database for station/object KC0RKM-13. If no packets are shown the sender has not sent any weather packets the latest 10 day(s).
| Time | Temp. | Humidity | Pressure | Rain* | Wind** | Luminosity | Snow |
|---|---|---|---|---|---|---|---|
| 1788351604 | 25° C | 65% | 1014.6 hPa | 0 mm | - | - | - |
| 1788351003 | 25° C | 65% | 1014.7 hPa | 0 mm | - | - | - |
| 1788349803 | 25° C | 65% | 1014.4 hPa | 0 mm | - | - | - |
| 1788349204 | 25° C | 64% | 1014.5 hPa | 0 mm | - | - | - |
| 1788348604 | 25° C | 63% | 1014.3 hPa | 0 mm | - | - | - |
| 1788348003 | 25.56° C | 63% | 1014.3 hPa | 0 mm | - | - | - |
| 1788347404 | 25.56° C | 63% | 1014.4 hPa | 0 mm | - | - | - |
| 1788346804 | 25° C | 64% | 1014.2 hPa | 0 mm | - | - | - |
| 1788345604 | 25.56° C | 63% | 1014.2 hPa | 0 mm | - | - | - |
| 1788345003 | 25.56° C | 62% | 1014.3 hPa | 0 mm | - | - | - |
| 1788344404 | 25.56° C | 62% | 1014.2 hPa | 0 mm | - | - | - |
| 1788343803 | 25° C | 63% | 1014.1 hPa | 0 mm | - | - | - |
| 1788343203 | 25.56° C | 62% | 1014.1 hPa | 0 mm | - | - | - |
| 1788342003 | 25° C | 63% | 1014 hPa | 0 mm | - | - | - |
| 1788341403 | 25° C | 63% | 1013.9 hPa | 0 mm | - | - | - |
| 1788340803 | 25° C | 64% | 1014.1 hPa | 0 mm | - | - | - |
| 1788340204 | 25.56° C | 61% | 1013.6 hPa | 0 mm | - | - | - |
| 1788339603 | 25.56° C | 62% | 1013.5 hPa | 0 mm | - | - | - |
| 1788339004 | 26.11° C | 60% | 1013.4 hPa | 0 mm | - | - | - |
| 1788338403 | 26.11° C | 59% | 1013.3 hPa | 0 mm | - | - | - |
| 1788337804 | 26.67° C | 58% | 1013.3 hPa | 0 mm | - | - | - |
| 1788337204 | 26.11° C | 58% | 1013.1 hPa | 0 mm | - | - | - |
| 1788336603 | 26.11° C | 58% | 1013.2 hPa | 0 mm | - | - | - |
| 1788336004 | 26.11° C | 59% | 1013.3 hPa | 0 mm | - | - | - |
| 1788335404 | 26.11° C | 58% | 1013.2 hPa | 0 mm | - | - | - |
* Rain latest hour (hover to see other rain measurements)
** Current wind speed in m/s (hover to see current wind gust speed)